Location: Pedimozza
(42.0500°N, 9.3500°E)
Time: 18:46:28
(UTC+00:00)

Cosmos 773 Rocket - Pass Details

Date: 19 August 2019
Orbit: 746 x 776 km, 74.1° (Epoch: 13 October)

Event Time Altitude Azimuth Distance (km) Brightness Sun altitude
Rises 19:13:54 0° 340° (NNW) 3,213 8.0 -10.4°
Reaches altitude 10° 19:16:17 10° 341° (NNW) 2,280 7.2 -10.8°
Maximum altitude 19:21:27 85° 69° (ENE) 756 3.9 -11.7°
Drops below altitude 10° 19:26:34 10° 160° (SSE) 2,255 6.0 -12.5°
Enters shadow 19:26:41 - 160° (SSE) 2,300 6.0 -12.5°
